"Pseudo-MPEC" for W04057

Created 2023 Dec 13 18:22:21 UT using Find_Orb

Click here for an explanation of pseudo-MPECs

 
 Astrometry: 
     W04057 * C2023 11 15[0lGAstrometrym]Hl9#y\gLk,(^$%3fch#5JS7_=]`[*C^v7aOMO18
     W04057   C2023 11 15(!ri]WmjY%Xw(m!5_;RB!h'yW6A-c#b\lF99]LB;#JcY`HtlDu4KO18
     W04057   C2023 11 15t:)d5j(9,+,1yInKkcO;L.UN(sW6x,redacted;+[ptKR32ps'rgO18
     W04057   C2023 11 17OCX9LNeZ]n_gNP?Z5!*/7w8-p1ihxe1Wl9wLvkC62K@++U,ig;YhO18
     W04057   C2023 11 171jWSCOsTaem8kC]4Yo9yTx.;hM(HclickBhere;6Tfor,GaOwZ]8O18
     W04057   C2023 11 17EPP7M3%-\?`6qoQ_v3bORL5explanation4QH!in+s_2,?h]ZXU)O18

Station data:
(O18) WFST, Lenghu  (N38.607601 E93.895220).

Orbital elements:  W04057
   Perihelion 2024 Jan 26.33562 +/- 6.87 TT =  8:03:17 (JD 2460335.83562)
Epoch 2023 Nov 17.0 TT = JDT 2460265.5   Earth MOID: 0.0126   Ve: 0.0020
M 306.20893429 +/- 13               Ma: 0.0689                   AutoNEOCP
n   0.76477706 +/- 0.125            Peri.  293.88498 +/- 0.32
a   1.18425750 +/- 0.129            Node   239.12959 +/- 0.20
e   0.5349046 +/- 0.105             Incl.    5.09810 +/- 1.0
P   1.29/470.72d           H 24.39  G  0.15   U 11.3
q 0.55079262 +/- 0.0647    Q 1.81772238 +/- 0.322         (J2000 ecliptic)
From 6 observations 2023 Nov. 15-17; mean residual 0".09
Residuals in arcseconds: 
231115 O18  .05+  .03-    231115 O18  .07-  .06+    231117 O18  .17-  .06+    
231115 O18  .02+  .03-    231117 O18  .01+  .08+    231117 O18  .15+  .14-    

Ephemerides (geocentric):
Date (UTC) HH   RA             Dec           delta  r     elong  mag " sig PA
---- --------  ------------   ------------  ------ ------ -----  --- --------
2023 12 13 18  17 42 16.185   -36 30 54.40  .12287 .86586  14.1 32?? 3653 120
2023 12 13 19  17 42 06.346   -36 29 39.18  .12327 .86544  14.1 32?? 3642 121
2023 12 13 20  17 41 56.574   -36 28 24.30  .12367 .86502  14.0 32?? 3631 121
2023 12 13 21  17 41 46.868   -36 27 09.76  .12407 .86461  14.0 32?? 3620 121
2023 12 13 22  17 41 37.226   -36 25 55.55  .12448 .86419  13.9 32?? 3609 121
2023 12 13 23  17 41 27.648   -36 24 41.68  .12488 .86377  13.9 32?? 3598 121
2023 12 14 00  17 41 18.134   -36 23 28.15  .12528 .86336  13.8 32?? 3588 121
2023 12 14 01  17 41 08.683   -36 22 14.94  .12568 .86294  13.8 32?? 3577 121
2023 12 14 02  17 40 59.294   -36 21 02.05  .12608 .86252  13.8 32?? 3566 121
2023 12 14 03  17 40 49.968   -36 19 49.49  .12648 .86211  13.7 32?? 3556 121
2023 12 14 04  17 40 40.702   -36 18 37.25  .12688 .86169  13.7 32?? 3545 121
2023 12 14 05  17 40 31.498   -36 17 25.32  .12729 .86127  13.6 32?? 3535 121
2023 12 14 06  17 40 22.353   -36 16 13.71  .12769 .86086  13.6 32?? 3525 121
2023 12 14 07  17 40 13.269   -36 15 02.42  .12809 .86044  13.6 32?? 3514 121
2023 12 14 08  17 40 04.243   -36 13 51.43  .12849 .86002  13.5 32?? 3504 121
2023 12 14 09  17 39 55.276   -36 12 40.75  .12890 .85961  13.5 32?? 3494 121
2023 12 14 10  17 39 46.367   -36 11 30.37  .12930 .85919  13.4 32?? 3484 121
2023 12 14 11  17 39 37.515   -36 10 20.30  .12970 .85877  13.4 32?? 3474 121
2023 12 14 12  17 39 28.721   -36 09 10.53  .13011 .85836  13.4 32?? 3464 121
2023 12 14 13  17 39 19.983   -36 08 01.05  .13051 .85794  13.3 32?? 3454 121
2023 12 14 14  17 39 11.301   -36 06 51.87  .13092 .85752  13.3 32?? 3445 121
2023 12 14 15  17 39 02.674   -36 05 42.98  .13132 .85711  13.2 32?? 3435 121
2023 12 14 16  17 38 54.103   -36 04 34.38  .13172 .85669  13.2 32?? 3425 121
2023 12 14 17  17 38 45.586   -36 03 26.07  .13213 .85627  13.2 32?? 3416 121
2023 12 14 18  17 38 37.124   -36 02 18.05  .13253 .85586  13.1 32?? 3406 121
2023 12 14 19  17 38 28.714   -36 01 10.31  .13294 .85544  13.1 32?? 3397 121
2023 12 14 20  17 38 20.359   -36 00 02.85  .13334 .85502  13.1 32?? 3388 121
2023 12 14 21  17 38 12.055   -35 58 55.66  .13375 .85461  13.0 32?? 3378 121
2023 12 14 22  17 38 03.805   -35 57 48.76  .13415 .85419  13.0 32?? 3369 121
2023 12 14 23  17 37 55.605   -35 56 42.13  .13456 .85377  13.0 32?? 3360 121
2023 12 15 00  17 37 47.458   -35 55 35.77  .13497 .85336  12.9 32?? 3351 121
2023 12 15 01  17 37 39.361   -35 54 29.68  .13537 .85294  12.9 32?? 3342 121
2023 12 15 02  17 37 31.315   -35 53 23.85  .13578 .85252  12.9 32?? 3333 121
2023 12 15 03  17 37 23.319   -35 52 18.30  .13619 .85211  12.8 32?? 3324 121
2023 12 15 04  17 37 15.372   -35 51 13.00  .13659 .85169  12.8 33?? 3315 121
2023 12 15 05  17 37 07.475   -35 50 07.97  .13700 .85127  12.8 33?? 3306 122
2023 12 15 06  17 36 59.627   -35 49 03.20  .13741 .85086  12.7 33?? 3297 122
2023 12 15 07  17 36 51.827   -35 47 58.68  .13781 .85044  12.7 33?? 3289 122
2023 12 15 08  17 36 44.075   -35 46 54.42  .13822 .85002  12.7 33?? 3280 122
2023 12 15 09  17 36 36.371   -35 45 50.42  .13863 .84960  12.6 33?? 3272 122
2023 12 15 10  17 36 28.714   -35 44 46.66  .13904 .84919  12.6 33?? 3263 122
2023 12 15 11  17 36 21.104   -35 43 43.15  .13945 .84877  12.6 33?? 3255 122
2023 12 15 12  17 36 13.541   -35 42 39.89  .13986 .84835  12.6 33?? 3246 122
2023 12 15 13  17 36 06.024   -35 41 36.88  .14026 .84794  12.5 33?? 3238 122
2023 12 15 14  17 35 58.553   -35 40 34.11  .14067 .84752  12.5 33?? 3229 122
2023 12 15 15  17 35 51.127   -35 39 31.58  .14108 .84710  12.5 33?? 3221 122
2023 12 15 16  17 35 43.746   -35 38 29.28  .14149 .84669  12.5 33?? 3213 122
2023 12 15 17  17 35 36.410   -35 37 27.23  .14190 .84627  12.4 33?? 3205 122